Regional Weather Roundup
Issued by NWS

Home | Current Version | Previous Version | Text Only | Print | Product List | Glossary On
Versions: 1 2 3 4 5 6 7 8 9 10 11 12 13 14 15 16 17 18 19 20 21 22 23 24 25 26 27 28 29 30 31 32 33 34 35 36 37 38 39 40 41 42 43 44 45 46 47 48 49 50
000
ASUS46 KPQR 061610
RWROR

OREGON REGIONAL WEATHER ROUNDUP
NATIONAL WEATHER SERVICE PORTLAND OR
900 AM PDT MON JUL 06 2015

NOTE: "FAIR" INDICATES FEW OR NO CLOUDS BELOW 12,000 FEET WITH
NO SIGNIFICANT WEATHER AND/OR OBSTRUCTIONS TO VISIBILITY.

ORZ001>013-061700-
NORTHWEST OREGON


CITY           SKY/WX    TMP DP  RH WIND       PRES   REMARKS
ASTORIA        CLOUDY    59  53  80 SW10      30.05R
NEWPORT        CLOUDY    59  54  82 SW12      30.08S
PORTLAND       MOSUNNY   68  57  68 CALM      30.02R
VANCOUVER WA   SUNNY     66  57  72 SW5       30.02R
SCAPPOOSE      SUNNY     67  55  65 CALM      30.01S
HILLSBORO      SUNNY     67  54  63 CALM      30.01S
AURORA         SUNNY     66  53  63 S5        30.03R
MCMINNVILLE    SUNNY     65  54  67 VRB3      30.03S
SALEM          SUNNY     71  52  50 VRB6      30.01S
CORVALLIS      MOSUNNY   68  54  60 S3        30.05S
EUGENE         PTSUNNY   63  53  70 SW7       30.05R
$$

ORZ021-028-061700-
SOUTHWEST OREGON


CITY           SKY/WX    TMP DP  RH WIND       PRES   REMARKS
NORTH BEND     CLOUDY    59  57  94 CALM      30.08R
BROOKINGS      CLOUDY    58  58 100 S7        30.09R
ROSEBURG       SUNNY     71  55  56 N6        30.02S
SEXTON SUMMIT  SUNNY     73  52  47 CALM      30.13R
MEDFORD        SUNNY     76  55  48 CALM      30.01S
$$

ORZ014>016-041-061700-
COLUMBIA GORGE


CITY           SKY/WX    TMP DP  RH WIND       PRES   REMARKS
TROUTDALE      SUNNY     70  56  61 CALM      30.00S
THE DALLES     SUNNY     80  55  42 N9        29.94F
$$

ORZ029>031-041-044-049-050-061>064-502-503-505>511-061700-
EASTERN OREGON


CITY           SKY/WX    TMP DP  RH WIND       PRES   REMARKS
REDMOND        SUNNY     78  48  34 S3        30.09S
BEND             N/A    N/A N/A N/A MISG        N/A
PRINEVILLE     SUNNY     75  45  33 CALM      30.10S
KLAMATH FALLS  SUNNY     69  54  58 CALM      30.16S
LAKEVIEW       SUNNY     68  48  49 CALM      30.20S
HERMISTON      SUNNY     80  50  34 N3        29.96R
PENDLETON      SUNNY     82  42  24 CALM      29.99S
JOHN DAY       MOSUNNY   74  47  37 SE3       30.13S
MEACHAM        SUNNY     77  47  34 CALM      30.11F
LA GRANDE      SUNNY     75  43  31 CALM      30.08S
BAKER CITY     SUNNY     73  50  44 VRB3      30.11S
BURNS          CLOUDY    67  50  54 CALM      30.18R
ROME             N/A     72  50  45 CALM      30.16R
ONTARIO        MOSUNNY   79  51  37 CALM      30.05S
$$


USA.gov is the U.S. government's official web portal to all federal, state and local government web resources and services.